Wind_Speed
2 2 1 1 2 1 2 4 2 3 2 1 3 1 4 4 2 2 4 3 1 3 3 2 3 5 3 3 7 7 5 7 6 6 4 4 6 20 26 15 18 28 30 27 26 24 22 22 20 19 18 17 16 16 16 15 14 14 13 12 12 12 12 11 11 11 10 11 10 10 9 8 8 7 8 7 8 8 9 9 8 8 7 6 6 7 7 7 6 7 7 6 5 5 5 4 4
2 1 2 1 3 2 1 3 2 4 4 3 3 3 4 3 1 5 8 6 5 4 0 3 3 3 3 2 3 3 3 4 5 4 3 4 8 20 23 15 22 29 30 29 27 25 23 23 22 21 19 18 18 17 17 17 16 14 14 13 13 12 12 12 11 11 10 10 9 9 8 7 7 6 6 6 7 8 8 8 8 8 7 7 6 8 9 9 7 7 6 5 4 3 2 1 1
2 1 3 1 2 3 1 4 2 1 3 3 4 4 3 1 5 8 9 8 7 3 2 2 2 2 4 3 1 2 4 3 3 3 1 8 8 18 26 18 25 28 28 29 27 26 23 23 22 20 18 17 18 18 18 16 16 15 14 13 13 13 12 11 11 11 10 9 9 8 8 7 7 6 6 6 7 8 8 8 9 8 8 8 7 7 6 6 4 3 2 2 2 2 2 2 2
2 1 3 1 1 4 4 3 1 3 1 3 3 6 3 4 8 8 8 7 6 2 2 1 1 1 4 2 2 1 4 4 4 6 2 12 12 19 29 22 25 27 27 29 27 26 23 23 21 19 17 17 19 19 17 15 17 15 14 14 14 13 12 11 10 11 10 9 9 8 8 8 7 7 6 6 7 8 8 8 9 9 9 8 6 5 4 3 3 3 3 3 2 2 2 3 3
2 2 4 2 2 1 3 2 2 3 4 4 2 6 5 7 7 7 6 6 4 1 1 0 1 2 1 3 3 1 5 2 4 10 5 12 15 21 30 24 26 27 27 27 26 25 23 22 21 20 17 17 20 20 18 16 17 16 15 15 14 14 13 12 11 11 11 10 10 10 10 9 9 8 8 8 9 9 8 8 9 10 10 9 7 5 5 4 4 4 4 3 3 3 3 3 4
1 1 4 4 2 1 3 1 2 2 5 5 3 7 7 7 7 7 5 6 4 3 4 2 2 1 1 3 2 3 5 2 3 11 8 10 16 23 30 27 26 27 26 26 24 23 22 23 22 21 16 17 20 19 18 17 17 16 16 16 15 14 14 13 12 12 12 12 12 12 12 11 11 10 10 10 10 9 8 8 10 10 10 9 7 6 5 5 5 4 4 3 3 3 3 3 4
1 1 3 4 2 2 3 3 4 4 5 6 5 6 8 7 4 4 2 3 2 3 3 4 2 2 3 2 2 4 5 4 3 7 8 10 18 25 30 29 27 27 26 25 23 22 22 23 22 19 16 16 19 19 18 17 17 17 17 17 16 16 15 15 14 14 14 14 14 14 13 12 11 11 10 10 10 9 9 9 9 9 9 9 8 7 5 4 4 4 3 3 3 3 3 3 3
3 1 1 4 1 2 3 2 4 4 4 5 5 7 9 6 4 5 4 2 2 3 2 3 2 1 5 1 2 5 4 8 3 4 8 12 20 26 30 30 29 27 26 25 23 22 23 24 21 18 18 17 19 19 18 18 18 18 18 18 18 18 17 17 16 16 15 15 15 14 13 12 11 10 10 9 9 8 8 8 8 9 9 9 8 7 5 4 3 3 3 3 2 2 2 1 1
4 2 0 2 2 1 1 2 4 4 5 6 6 8 9 5 5 6 5 4 2 2 4 4 4 3 5 2 4 5 3 11 7 6 9 15 23 27 30 31 30 29 27 26 24 24 23 24 21 19 19 19 19 19 19 19 19 20 20 19 19 19 18 17 16 15 15 14 14 13 13 12 11 10 9 9 8 7 8 8 8 8 8 8 8 7 6 6 6 5 5 5 4 4 3 3 2
3 3 1 1 2 1 3 3 3 3 6 6 6 10 9 4 6 5 5 5 3 1 5 3 3 4 3 2 6 3 3 10 11 9 11 19 24 27 30 31 30 29 28 27 26 25 23 23 22 20 20 20 19 19 20 20 19 19 19 19 18 18 17 16 16 16 15 14 14 13 12 12 11 10 9 9 9 8 8 8 9 9 9 9 8 8 8 8 8 8 8 7 7 6 6 5 4
2 4 2 2 2 2 4 4 4 5 6 5 7 10 8 6 6 3 3 4 4 2 3 3 2 4 1 3 5 3 4 10 13 11 15 22 26 27 29 29 29 28 28 28 27 26 23 23 23 21 22 22 20 20 20 20 20 19 19 19 19 18 17 17 17 17 15 15 14 13 12 11 10 10 10 10 10 9 10 10 10 10 10 10 9 9 9 9 9 9 8 8 8 7 7 6 5
1 3 3 2 2 3 4 3 5 6 7 5 6 7 2 7 5 4 5 5 4 2 5 4 3 4 2 5 4 3 4 11 15 12 17 25 27 28 28 28 28 27 27 27 27 25 23 23 23 23 23 23 22 21 21 21 20 20 20 19 19 19 18 18 18 16 16 15 14 13 12 12 12 11 11 11 11 11 12 11 11 11 11 11 10 10 10 9 9 8 8 8 7 7 7 6 6
3 2 4 2 3 2 2 3 5 5 7 4 5 4 3 7 5 7 7 4 3 2 7 8 4 3 3 5 4 5 5 13 16 15 21 26 28 28 28 27 27 27 26 26 26 25 24 24 24 24 23 23 23 22 22 22 21 20 19 19 20 20 19 19 18 17 16 15 15 15 14 14 14 14 14 14 13 13 13 12 12 11 11 11 10 10 9 9 8 7 7 7 7 7 7 6 6
2 3 4 1 1 1 2 2 5 2 5 6 3 2 2 3 5 5 6 4 7 6 5 6 6 1 3 3 4 5 5 14 18 19 24 27 28 28 27 27 27 27 26 26 26 26 25 25 25 24 23 24 24 24 24 23 23 21 20 21 21 20 19 19 18 17 17 17 17 16 16 16 16 16 16 15 15 14 13 13 12 11 11 10 10 9 8 8 7 7 7 7 7 7 6 6 6
2 2 4 1 2 2 3 3 3 3 4 6 3 1 2 4 2 4 5 7 8 6 1 2 5 2 3 4 4 6 5 16 21 22 26 27 27 26 26 26 26 27 27 27 27 27 27 26 26 25 25 25 26 26 26 25 24 23 23 22 21 20 19 19 19 19 18 19 18 18 18 18 18 17 17 16 15 14 14 13 12 12 11 11 10 9 8 8 8 7 7 7 6 6 5 5 5
3 3 4 1 2 2 3 4 2 2 5 6 4 1 1 6 2 2 5 4 4 3 1 4 5 2 5 6 6 6 3 19 23 23 26 25 24 24 24 25 26 27 28 28 28 28 28 28 28 27 27 27 28 28 27 26 25 24 24 22 21 20 20 20 20 20 20 20 20 19 19 19 19 18 17 16 15 14 14 14 13 13 12 11 10 9 9 8 8 7 7 6 6 6 5 5 5
3 4 3 1 2 2 4 4 3 3 5 6 6 1 2 7 3 2 2 2 3 3 2 5 4 2 5 4 5 4 8 23 24 24 24 22 22 21 22 24 26 28 30 30 30 30 30 30 29 29 29 29 29 29 28 27 26 25 24 23 21 21 21 21 22 22 21 21 20 19 19 19 18 18 17 16 16 15 15 14 14 13 13 12 11 10 9 8 8 7 6 6 6 5 5 5 4
2 3 2 3 3 4 6 7 6 3 4 5 5 1 5 5 5 2 2 2 4 4 5 5 6 5 3 3 4 3 17 24 25 26 24 21 21 20 22 26 29 31 33 33 33 33 33 32 31 31 31 32 31 30 30 29 28 26 25 23 22 22 22 23 23 22 22 21 20 20 20 20 19 18 18 17 17 16 15 15 15 14 13 13 12 11 10 9 8 7 7 6 6 5 5 4 4
2 3 2 4 6 5 6 7 5 3 4 5 6 2 5 6 4 1 3 7 5 6 7 4 7 9 5 2 3 12 21 25 26 27 25 24 24 24 24 26 29 32 34 37 38 37 36 34 33 33 33 33 33 32 31 30 29 27 26 24 23 23 23 23 23 22 22 22 22 22 21 20 20 19 18 18 18 17 17 16 16 15 14 14 13 12 11 10 9 8 7 6 6 5 4 4 4
2 3 2 6 7 6 6 7 7 7 4 5 7 2 3 6 4 1 3 8 9 9 7 3 7 12 10 4 7 14 19 22 25 26 25 26 28 28 27 28 32 36 39 41 40 39 38 37 36 36 35 35 35 34 32 31 30 29 27 25 24 24 24 23 23 23 23 23 23 22 21 21 20 20 20 19 19 19 18 17 17 16 15 14 13 12 11 10 9 8 8 7 6 6 5 5 4
2 4 5 7 4 4 8 8 9 8 3 4 5 2 4 6 3 3 3 6 12 11 8 10 12 13 12 6 8 14 17 18 22 23 23 25 27 29 30 33 36 38 38 36 38 40 41 40 38 38 37 36 36 35 34 33 32 30 28 27 26 25 25 25 24 24 24 24 24 23 23 22 22 22 21 21 20 20 19 19 18 17 15 14 13 11 11 10 9 8 8 7 6 6 5 5 5
2 5 8 7 5 4 9 7 7 5 2 3 3 5 6 4 2 5 5 6 14 8 7 13 14 13 11 9 10 12 13 14 17 20 22 24 27 29 31 32 32 31 31 35 40 42 43 42 40 39 39 39 38 37 36 34 33 32 30 29 28 27 27 26 26 26 26 26 25 25 25 24 24 24 23 23 22 21 21 20 18 17 15 14 13 11 11 10 9 8 8 7 7 6 5 5 5
3 6 6 7 7 7 7 3 5 3 1 4 4 5 3 4 7 6 8 13 19 11 5 11 11 12 10 8 10 11 13 14 16 22 26 28 29 32 34 33 33 33 34 38 41 41 43 43 42 41 41 41 40 38 37 36 35 34 32 30 30 29 29 29 29 29 28 27 27 27 27 27 27 26 25 25 24 22 21 19 18 16 15 14 13 11 10 10 9 8 7 6 6 5 5 5 6
5 6 5 6 7 9 9 5 5 3 5 8 2 5 5 7 8 1 6 17 21 14 6 9 10 8 6 7 11 14 15 16 20 29 33 34 36 39 38 35 35 34 34 37 38 39 43 45 45 43 43 43 42 40 39 38 37 35 33 32 31 31 31 31 31 30 29 29 29 29 29 29 28 28 27 25 24 22 21 19 18 16 15 13 13 11 9 9 8 7 6 5 5 5 4 5 5
6 8 5 4 4 8 10 7 7 6 7 6 2 8 12 11 5 5 14 22 19 12 9 10 9 6 7 9 12 13 14 16 20 26 30 33 34 33 32 32 30 30 35 39 38 40 43 45 46 46 45 45 44 43 41 40 38 36 35 34 33 32 32 32 31 31 31 31 30 31 31 30 29 28 27 25 24 23 22 20 18 17 15 13 12 11 9 8 7 6 5 4 4 4 4 4 5
7 8 5 4 6 8 8 7 7 7 6 4 3 12 15 7 2 9 19 22 17 8 8 9 7 8 8 9 11 12 13 15 18 22 27 30 28 26 30 30 30 35 40 39 39 42 43 43 45 48 47 46 46 44 43 42 40 39 38 36 35 34 34 33 32 32 32 32 32 33 33 31 29 28 27 26 25 24 23 21 19 17 15 14 12 11 9 7 6 5 4 4 3 3 4 4 4
5 5 6 7 8 8 6 6 6 4 5 7 7 14 15 4 2 9 17 12 5 5 6 6 5 9 10 9 9 10 12 16 21 21 20 22 24 28 31 30 35 41 38 37 42 43 41 42 45 48 48 47 46 46 46 44 43 42 40 38 37 36 35 34 34 34 34 34 34 34 34 32 29 28 27 26 25 25 23 22 20 18 16 14 12 11 10 8 7 5 4 3 2 3 3 4 4
2 2 7 9 7 9 8 8 6 3 5 8 11 11 11 4 2 13 19 9 2 6 10 8 5 9 10 9 9 8 10 18 21 17 16 20 27 33 33 35 42 41 38 43 45 41 40 42 45 46 48 47 47 47 47 46 45 43 42 40 39 38 37 37 36 36 36 36 35 35 35 32 30 29 28 27 26 25 24 22 20 18 17 15 14 12 10 9 7 5 4 3 2 2 3 3 3
3 2 6 12 7 10 13 8 4 6 4 6 9 5 8 4 10 18 20 11 3 6 11 12 9 9 9 9 8 8 10 16 15 16 24 30 34 35 36 43 45 41 43 45 40 38 42 43 44 45 46 47 48 49 48 48 47 45 44 42 41 39 38 38 38 38 38 37 37 36 35 32 30 30 29 28 27 26 24 23 21 19 17 16 15 13 11 9 8 6 5 3 2 2 2 2 2
5 2 1 9 7 9 9 2 2 3 4 5 7 4 8 9 17 19 14 9 6 7 11 13 10 9 8 8 8 9 11 12 13 22 32 34 35 35 38 44 42 42 43 38 37 41 44 43 43 43 45 47 49 49 48 48 47 46 45 43 42 41 40 40 39 39 39 38 37 36 34 33 32 31 30 29 27 26 25 23 22 20 18 17 15 14 12 10 8 7 5 4 3 1 0 1 2
4 3 1 3 3 8 6 4 2 3 4 7 6 5 10 12 18 17 10 7 7 8 13 12 11 10 9 8 8 10 11 12 18 28 32 34 36 36 39 41 39 41 39 36 42 45 43 42 43 43 45 48 49 49 49 49 48 47 46 45 43 43 42 41 40 40 39 39 38 36 35 34 33 32 30 30 28 27 26 24 23 21 19 18 16 14 12 11 9 8 6 5 3 2 1 1 2
2 2 4 2 2 7 11 5 5 8 5 5 7 6 9 12 17 15 7 5 7 9 13 12 11 11 10 9 7 9 10 11 19 27 29 34 38 37 39 40 38 40 41 42 44 41 41 42 43 44 45 47 49 49 49 49 48 47 46 45 44 44 43 42 41 41 40 39 38 37 36 36 35 33 32 31 29 28 27 25 23 21 20 19 17 15 13 12 10 9 7 5 4 3 1 1 2
2 1 5 4 5 4 9 9 7 9 4 2 7 7 6 9 13 12 5 4 7 8 12 12 12 11 10 9 8 9 10 10 13 19 26 34 38 38 39 40 39 40 42 43 42 40 41 43 43 45 46 48 50 49 48 47 46 46 45 45 44 44 43 43 42 41 40 40 39 38 37 37 36 34 33 32 30 29 27 26 24 22 21 19 18 16 14 12 11 9 8 7 5 3 2 1 3
3 2 4 5 7 5 4 9 6 3 5 6 7 8 10 12 12 12 8 5 6 7 11 13 11 10 9 8 9 10 11 12 12 15 24 32 34 36 38 39 38 39 40 41 41 42 42 42 44 46 46 47 47 46 45 44 44 43 43 43 43 43 43 43 42 41 41 41 40 40 39 38 37 35 34 32 31 30 27 26 25 23 22 20 19 17 16 14 12 10 8 8 6 3 2 1 3
7 5 5 4 5 7 6 8 6 3 5 6 4 9 15 16 14 15 14 10 9 10 12 13 12 12 12 10 11 12 12 15 17 18 23 27 29 31 35 36 36 37 38 39 40 41 40 40 42 44 44 44 44 43 42 41 41 40 40 40 40 41 41 42 42 42 42 41 41 41 40 39 38 36 34 33 32 31 29 27 26 25 23 22 20 19 17 16 14 11 9 7 6 3 1 2 3
11 7 6 6 6 7 8 10 9 5 9 7 7 13 16 15 15 15 17 14 12 14 14 13 13 12 13 12 13 14 15 16 20 23 23 23 26 28 30 32 35 36 37 38 38 39 40 40 41 42 43 42 41 40 39 39 38 38 38 37 38 40 41 42 42 43 43 43 43 42 41 40 39 38 36 35 33 32 30 29 28 26 25 24 22 21 19 17 14 12 10 7 5 3 1 1 3
6 4 6 8 8 10 9 11 12 3 5 9 9 16 17 15 15 15 17 14 13 17 18 16 15 13 13 14 16 16 16 17 19 24 23 21 24 24 25 28 30 33 35 36 37 40 42 41 41 42 42 42 42 42 42 42 41 39 38 39 41 42 43 43 43 44 44 44 44 43 42 41 40 39 37 36 35 33 32 30 30 28 27 25 23 21 18 17 15 13 11 8 6 4 3 1 3
6 6 7 8 7 13 12 12 14 3 2 8 7 15 19 15 16 15 14 14 15 18 19 20 18 15 13 14 19 19 16 15 15 19 20 18 19 20 22 25 28 31 34 37 38 41 42 41 42 42 42 43 45 46 46 46 46 46 44 45 45 44 45 45 45 46 45 44 44 43 42 42 41 40 38 37 36 35 34 32 32 30 28 26 23 20 18 18 17 15 13 10 8 6 4 2 1
7 5 6 8 5 10 12 11 13 4 2 8 8 14 18 14 15 14 14 16 16 16 18 20 19 17 15 15 18 18 16 16 15 17 17 13 15 18 21 24 29 32 33 36 38 39 39 40 41 41 42 44 46 46 47 47 47 46 44 43 43 40 41 44 43 43 43 43 43 43 42 42 41 41 39 38 38 37 35 34 33 31 30 27 25 23 22 20 18 16 14 12 10 8 6 3 1
6 6 6 8 5 6 9 6 6 3 3 7 9 14 15 11 14 14 16 19 16 15 18 18 18 18 19 19 17 16 18 18 17 17 15 8 11 15 19 23 28 29 30 33 35 36 38 40 41 41 43 45 46 46 47 45 42 40 37 35 35 34 34 37 36 36 40 42 42 43 43 43 42 41 41 39 39 38 36 35 34 32 31 28 27 26 24 22 19 18 16 13 12 10 8 5 3
8 9 7 10 10 11 11 5 6 5 4 6 8 14 13 8 12 12 12 14 13 13 16 17 18 19 20 19 17 15 18 18 17 17 15 8 7 12 18 22 25 27 30 33 36 38 39 41 41 42 42 44 45 46 45 42 38 37 33 27 27 27 26 29 31 33 37 41 43 45 45 43 42 42 41 40 39 38 36 35 34 33 31 29 28 27 25 23 20 18 16 15 13 11 10 7 6
9 7 12 17 16 13 12 8 7 6 4 5 3 8 11 5 11 11 8 7 9 10 13 16 19 20 16 14 16 15 16 16 16 16 15 11 7 10 15 19 21 26 31 34 36 38 38 39 40 40 41 42 43 43 43 41 39 39 37 32 29 28 25 29 36 39 41 44 44 45 44 44 43 42 42 41 39 38 37 36 35 33 32 30 29 27 24 23 20 19 17 15 13 11 11 9 9
9 6 13 17 13 9 11 8 4 2 4 4 2 1 10 7 7 10 8 6 10 10 11 15 19 16 10 10 14 14 13 12 12 12 13 12 9 8 11 17 22 28 31 31 31 34 35 36 38 40 40 41 41 42 43 42 41 41 41 40 38 36 34 37 42 41 42 44 43 43 44 44 44 43 43 42 41 40 38 37 36 34 32 31 30 27 25 23 21 19 17 16 14 13 13 12 12
8 5 9 11 9 8 7 5 4 4 3 4 1 5 6 13 6 9 10 9 11 12 13 16 16 13 11 12 13 13 13 12 10 10 12 11 8 7 10 17 25 28 27 26 29 32 34 35 37 39 39 40 41 42 44 44 43 42 42 41 39 40 40 39 38 36 38 40 41 41 43 44 45 44 43 43 42 41 40 39 37 35 33 32 31 28 26 24 22 20 18 17 16 15 13 12 13
6 2 5 7 6 5 5 5 5 1 4 4 4 4 1 13 8 3 5 8 9 13 16 16 14 12 13 13 13 12 14 13 10 11 12 9 6 9 14 18 22 24 23 26 30 32 34 35 36 38 38 39 40 42 45 46 45 44 44 42 40 40 39 35 33 34 34 37 39 40 41 43 44 44 44 43 43 43 42 41 38 37 36 34 32 29 27 25 23 22 21 21 19 17 15 13 13
4 6 5 4 4 3 5 3 3 2 5 5 5 4 2 11 9 3 2 3 8 12 12 12 11 11 13 13 12 11 11 13 11 9 10 8 8 12 15 16 16 19 22 24 27 29 32 34 35 37 39 39 40 43 45 46 45 44 44 43 41 39 36 31 30 32 33 35 38 39 40 41 43 44 44 43 43 43 43 41 40 39 37 35 33 31 29 27 26 24 23 22 20 18 17 15 14
2 5 5 6 5 4 4 1 3 3 7 6 10 11 6 7 6 4 3 4 6 7 7 8 9 11 14 12 11 12 11 10 9 8 7 6 6 8 10 11 12 14 18 21 24 28 31 33 35 37 38 39 41 43 45 46 46 45 45 45 43 40 36 33 32 33 35 36 37 38 39 40 42 43 45 44 44 44 43 42 41 40 38 37 35 33 32 30 28 26 24 22 21 19 18 17 16
3 3 3 3 4 4 5 4 4 2 8 6 11 12 8 8 6 2 4 7 4 6 6 8 10 11 12 10 9 10 10 7 7 8 8 7 6 5 6 8 10 13 17 21 24 27 30 33 35 36 37 39 40 42 44 46 46 46 46 45 45 42 39 39 38 37 38 39 39 38 38 39 40 42 44 45 46 45 43 43 42 41 40 39 37 35 33 32 30 28 26 25 24 22 20 19 19
4 3 3 0 4 3 3 3 1 4 8 5 7 7 5 12 9 3 8 11 9 9 8 9 10 10 11 10 8 8 9 8 6 7 7 6 6 5 5 6 9 14 18 21 24 27 30 33 35 36 37 38 39 41 43 45 46 47 47 46 45 42 41 42 42 40 40 41 40 39 39 40 41 42 44 46 47 46 45 44 44 43 42 40 39 37 35 33 31 30 29 28 26 24 23 21 20
6 5 5 4 2 2 4 4 2 5 7 2 3 4 4 10 7 7 12 13 11 8 8 10 10 9 10 9 8 9 11 7 5 5 6 6 6 5 5 7 9 13 17 21 25 28 31 33 36 37 37 39 40 41 42 44 46 48 47 46 45 42 42 43 43 41 41 41 40 41 42 43 43 45 47 47 48 47 47 46 45 44 43 41 39 38 36 35 33 32 31 30 28 26 24 22 20
7 6 6 5 5 4 4 4 5 7 5 2 1 4 4 4 3 6 10 9 7 6 7 7 7 8 9 9 8 10 11 7 5 6 6 6 7 5 6 9 11 13 16 20 24 27 30 32 35 37 37 39 41 41 43 45 47 47 45 44 44 44 44 43 43 42 41 41 42 42 43 44 45 46 46 46 46 47 48 47 46 45 44 42 41 39 38 37 35 34 33 31 29 27 25 24 22
4 4 4 4 6 6 4 6 7 4 3 3 3 4 5 5 6 8 8 8 9 9 7 6 8 8 6 7 9 8 9 8 7 7 7 8 7 6 7 9 12 14 17 21 24 27 30 31 33 36 37 38 40 42 44 46 46 44 43 44 44 43 43 42 42 43 43 43 43 44 44 44 45 44 43 44 45 46 48 48 47 46 45 44 43 41 40 39 37 36 35 33 31 29 28 26 25
2 3 3 4 4 6 5 7 2 1 4 6 5 7 6 4 9 8 3 5 8 8 8 7 8 8 6 6 8 8 8 9 9 8 8 8 8 7 8 10 13 15 18 22 26 29 31 31 32 33 33 35 40 44 45 44 42 42 44 45 44 44 44 45 45 44 43 42 42 43 43 43 44 43 43 44 44 46 47 48 48 47 46 45 44 43 41 40 39 38 37 36 33 31 30 28 26
5 4 5 1 3 2 2 2 1 2 9 6 6 14 10 4 8 6 6 7 7 6 6 6 6 6 7 7 6 7 8 8 10 9 7 7 6 6 9 12 15 17 19 20 24 27 30 31 31 32 33 36 41 43 43 41 41 42 44 45 46 47 47 47 46 43 41 40 41 42 43 43 44 44 43 43 43 45 46 47 48 47 47 46 45 44 42 41 40 39 38 36 34 33 32 29 27
5 3 3 2 1 2 1 2 3 6 10 6 7 15 12 7 9 7 7 9 9 6 5 6 6 5 7 8 8 8 8 7 9 10 9 7 6 6 8 13 16 17 19 19 20 24 28 30 30 31 35 37 37 38 40 41 42 43 44 45 47 47 47 46 45 42 40 41 43 43 43 43 43 43 43 42 43 44 45 46 47 46 46 46 45 45 43 42 41 40 39 37 35 34 32 30 28
1 1 3 1 3 3 3 3 2 5 10 8 8 10 8 7 7 6 7 9 8 5 3 5 6 6 6 7 8 9 8 8 8 9 12 13 12 8 7 12 15 16 18 19 20 24 27 29 30 32 35 35 34 36 39 42 44 46 45 44 44 45 46 46 45 42 41 43 44 43 43 43 43 42 43 43 43 44 45 46 46 46 46 45 45 44 43 42 41 40 39 38 36 35 33 31 29
1 2 3 3 2 1 2 2 2 3 7 7 7 8 7 5 5 6 7 7 6 6 3 5 7 8 9 9 10 11 10 10 11 10 9 12 15 12 6 10 14 15 17 19 21 23 25 27 31 35 36 36 37 38 39 42 45 45 45 44 44 45 46 45 42 41 42 42 42 42 43 43 42 42 43 44 44 45 46 46 46 45 45 45 45 45 44 43 41 40 39 38 37 36 34 32 30
4 4 4 5 5 4 5 6 4 3 5 6 8 9 6 4 7 8 6 5 6 6 4 7 9 10 12 13 13 13 11 11 12 12 11 10 12 12 11 12 14 15 17 18 20 23 25 29 33 34 35 37 38 39 41 44 44 42 43 45 44 43 42 41 41 41 41 42 42 43 43 43 43 43 44 45 45 45 45 46 45 45 45 45 45 45 45 44 43 41 40 38 38 36 35 33 32
Wind_Direction
64 57 350 332 327 337 9 53 71 319 75 287 275 216 265 233 236 265 260 260 205 244 205 143 162 149 124 174 187 189 172 172 172 147 215 229 145 166 169 176 178 171 171 171 174 175 170 167 165 165 170 170 166 162 162 162 161 163 159 159 156 154 157 155 154 152 151 148 143 139 139 140 137 138 139 138 135 125 122 113 108 111 107 102 99 102 103 105 112 118 115 113 119 117 108 99 91
59 38 356 341 356 27 256 68 94 329 39 317 282 183 259 294 286 233 223 208 205 251 281 123 125 104 78 71 136 150 204 207 186 169 242 157 145 173 173 178 176 173 174 173 176 177 171 170 168 168 172 175 171 164 165 163 161 162 159 157 156 155 157 155 156 157 155 149 144 142 143 143 140 142 143 145 139 122 120 119 113 114 110 108 113 113 108 105 113 117 115 119 126 131 133 98 32
59 32 1 330 9 43 70 42 98 42 49 280 278 234 267 289 233 234 226 213 228 272 354 159 143 108 90 25 103 151 234 261 191 183 277 169 170 182 178 179 177 176 176 175 178 179 176 173 172 173 175 176 173 170 170 166 164 165 164 163 162 165 165 161 160 161 161 153 150 149 144 139 140 143 148 151 142 128 128 132 122 117 114 115 118 129 126 115 128 140 148 150 155 184 218 252 284
44 22 6 38 50 30 66 36 142 126 192 240 271 262 241 220 238 250 247 238 251 331 1 239 229 204 124 222 226 143 247 269 208 180 179 193 192 182 178 178 178 179 178 178 180 181 182 180 180 179 178 181 180 178 177 173 169 169 171 171 171 174 173 172 168 167 168 163 161 159 152 149 154 153 151 140 134 128 126 131 133 134 139 145 140 159 180 173 180 197 206 206 207 214 228 243 264
18 19 9 60 100 35 95 61 105 122 217 197 226 267 236 221 245 253 263 280 274 236 252 183 265 271 137 223 195 174 227 248 220 193 187 200 193 179 178 178 179 181 181 181 182 184 185 185 186 184 182 186 186 184 182 177 172 172 173 174 176 175 176 178 176 172 172 172 169 166 163 162 166 159 145 131 125 126 128 140 157 161 161 171 174 175 187 192 191 197 210 223 238 243 252 260 268
341 57 24 56 92 99 115 167 181 210 228 175 199 264 252 231 235 236 271 308 290 227 208 196 233 241 260 263 205 211 208 133 164 195 202 199 190 180 178 179 181 182 183 183 184 186 187 187 186 186 184 185 187 185 183 177 172 173 174 173 176 175 175 177 175 173 169 168 165 162 160 156 158 152 142 140 139 143 156 163 167 168 164 166 157 143 156 186 202 210 226 237 247 254 261 269 276
54 137 17 63 60 35 118 199 204 234 239 180 193 250 263 255 220 204 264 309 285 252 196 201 195 130 241 284 265 245 217 196 142 188 204 197 187 179 179 181 183 183 184 185 185 186 187 185 183 183 180 181 182 179 179 174 172 173 174 173 173 174 172 174 171 170 167 165 165 163 163 162 162 157 154 159 163 166 169 170 169 168 167 163 150 143 151 177 194 207 219 225 235 241 249 261 274
65 124 12 97 104 13 117 227 227 218 245 216 220 237 257 260 175 170 204 190 211 248 216 230 152 143 262 339 258 258 225 222 217 198 199 195 187 179 182 184 184 184 186 187 187 188 187 185 180 178 177 177 176 175 176 174 175 174 174 173 173 173 172 173 171 170 168 168 171 171 174 176 176 172 171 170 170 170 166 165 166 167 167 168 164 157 153 149 151 163 172 178 188 186 191 212 239
50 49 29 105 155 343 65 271 257 233 253 254 252 245 262 250 168 174 193 233 264 229 246 235 160 193 274 340 258 278 249 225 222 228 202 193 188 182 186 188 187 185 186 188 187 187 187 187 180 177 177 176 177 176 177 176 177 175 175 175 173 173 173 173 171 172 173 173 176 177 180 182 182 181 180 176 170 166 161 157 154 157 160 163 163 157 145 130 121 121 123 128 131 132 134 133 136
42 24 137 101 124 284 304 266 248 253 246 249 262 251 258 218 174 185 181 238 247 198 264 206 154 233 263 256 255 278 231 217 215 224 196 188 189 187 189 191 193 189 187 188 188 189 189 190 184 180 178 176 180 179 179 178 178 177 177 176 174 174 173 171 173 178 180 180 181 181 183 182 181 179 175 172 167 161 153 149 146 146 146 147 148 145 138 128 122 119 120 122 122 121 119 116 117
39 351 104 95 78 224 252 247 257 263 265 292 284 258 243 183 155 190 187 261 234 211 275 122 183 237 225 280 254 239 219 205 208 210 185 185 190 190 191 192 195 194 192 189 190 192 193 193 190 187 181 178 182 180 180 180 179 178 177 176 175 174 172 177 183 187 186 186 188 188 187 184 179 174 167 164 160 154 148 144 141 138 138 137 135 132 129 126 125 125 126 125 122 116 111 108 105
91 332 63 108 185 213 216 238 268 274 296 307 279 283 211 146 138 202 202 249 234 224 247 183 196 171 146 286 260 271 257 205 202 201 184 184 191 191 193 194 195 198 197 194 193 195 197 196 195 192 186 182 182 181 182 181 181 180 179 178 176 177 180 187 191 191 191 192 193 191 188 184 179 173 166 161 156 152 148 145 141 139 137 134 131 128 126 126 124 123 120 115 112 106 103 98 91
124 140 86 147 196 192 209 230 275 299 312 265 243 302 109 139 188 211 179 220 222 195 248 212 165 121 195 258 283 308 270 206 192 190 185 184 191 191 193 195 194 197 198 199 198 198 201 201 199 197 190 186 184 184 185 183 183 181 180 182 184 189 191 194 195 194 194 192 190 187 184 180 175 171 166 162 157 154 151 148 145 141 138 136 135 132 132 131 126 119 111 106 104 100 97 93 87
138 148 113 206 247 130 204 247 284 292 289 261 262 296 161 177 212 185 143 218 235 195 241 206 147 113 237 266 306 301 245 197 185 184 184 184 191 191 194 195 195 197 199 203 204 205 205 204 204 201 195 192 191 190 190 189 188 187 189 192 195 197 196 197 197 195 192 188 185 183 179 175 172 168 166 163 160 157 153 150 147 143 140 138 137 136 136 131 124 119 113 110 107 103 100 96 90
144 131 94 126 321 333 217 232 246 166 254 262 277 288 212 254 157 132 182 213 248 216 230 185 159 191 208 192 235 275 244 187 180 181 181 183 188 191 196 196 198 199 201 205 208 210 209 208 206 203 200 197 197 196 195 195 194 196 197 199 199 198 197 197 196 193 189 185 183 180 177 173 170 169 167 165 162 160 156 153 150 147 145 142 139 136 133 127 124 121 118 116 113 112 109 103 98
115 106 71 9 267 296 224 218 185 151 253 246 265 356 280 275 161 155 225 192 271 260 149 202 191 206 183 181 221 291 237 177 176 178 177 181 187 192 197 198 201 202 204 208 210 212 211 209 207 205 204 202 201 200 200 199 200 200 200 201 199 198 197 196 194 191 187 185 183 180 177 174 172 170 168 166 163 162 161 159 155 152 151 148 146 142 138 133 130 127 123 122 120 119 116 115 113
71 84 74 298 220 217 211 207 192 189 262 267 301 331 179 290 294 230 248 144 256 264 240 229 226 218 189 211 282 313 173 170 171 172 173 180 185 190 197 200 202 204 207 209 211 212 211 210 209 208 206 205 204 203 203 203 203 202 201 201 199 198 197 196 194 191 189 186 183 180 178 176 174 172 171 169 167 165 165 163 159 156 156 154 151 148 144 141 138 135 131 127 123 121 119 119 118
64 90 142 245 204 203 194 193 202 195 269 273 308 280 184 268 296 302 339 282 262 266 268 273 282 264 226 274 308 160 164 168 169 170 172 178 183 189 197 201 203 206 208 209 212 212 212 212 211 210 208 207 206 205 206 206 205 203 202 201 199 199 197 198 196 193 191 185 182 181 179 178 175 174 174 173 171 170 170 166 163 162 161 159 157 155 153 152 149 145 141 138 132 127 127 125 121
125 127 187 236 206 215 203 193 209 208 247 268 293 283 184 233 265 27 289 271 282 270 271 298 281 268 260 269 163 163 165 169 173 174 176 180 186 192 197 202 204 208 209 210 212 213 213 214 213 212 210 209 207 207 207 207 207 205 203 201 201 201 200 201 199 195 191 186 184 182 182 180 178 178 177 176 175 173 172 170 168 166 165 164 164 163 161 158 154 152 148 144 141 136 137 131 123
170 143 227 245 217 237 240 214 224 230 253 292 290 277 182 239 245 114 256 276 278 252 246 238 250 255 246 211 160 170 171 175 180 182 185 189 194 196 198 200 204 210 211 212 212 212 214 214 215 214 212 210 209 208 208 208 208 206 204 203 203 203 203 203 200 196 192 189 187 185 184 183 182 182 181 180 178 177 175 173 171 168 167 164 163 161 156 152 148 145 140 137 136 132 129 118 111
173 161 213 236 197 238 249 219 232 248 240 250 273 335 288 259 207 194 247 296 283 253 215 215 226 240 234 198 181 181 179 186 190 193 196 198 201 203 205 205 207 211 212 213 214 214 214 215 215 214 213 212 211 210 208 209 208 208 206 204 205 205 205 203 201 198 194 192 189 188 187 187 187 185 185 183 181 181 177 174 172 168 166 161 157 155 149 144 139 134 132 130 125 117 111 101 93
164 215 226 226 169 231 253 216 226 240 185 226 279 301 282 268 217 214 205 241 267 259 186 211 222 231 225 190 187 186 186 195 195 202 205 205 208 209 212 212 213 214 213 215 216 216 216 216 216 215 214 212 212 212 211 210 209 209 208 206 205 205 205 203 201 199 196 194 192 191 191 191 190 189 188 185 183 181 178 174 170 166 164 157 153 151 143 137 134 130 127 121 111 103 94 82 74
219 251 246 236 205 229 261 220 216 204 197 260 259 278 293 308 286 221 189 228 253 263 192 206 223 230 221 173 171 185 195 200 201 206 206 207 211 212 213 214 214 214 214 217 217 217 216 216 216 216 215 213 213 213 213 212 211 211 210 208 206 205 204 203 202 200 198 196 195 196 196 195 194 191 189 186 183 180 177 173 168 165 162 156 151 149 143 136 133 127 122 110 99 89 75 65 57
230 255 257 247 222 229 256 261 260 262 253 255 265 322 295 265 281 251 216 245 253 264 249 224 235 230 199 162 178 192 198 202 208 209 208 210 212 214 214 213 215 215 216 219 219 217 218 217 216 216 216 215 213 213 214 214 213 213 212 210 208 207 205 205 204 201 199 198 198 199 200 199 196 193 189 186 183 179 177 173 169 166 163 159 153 151 148 141 136 127 117 104 96 83 66 57 48
225 235 245 253 240 239 259 270 267 262 252 250 290 294 265 240 264 301 263 262 266 265 255 244 238 220 189 191 198 199 205 209 215 216 216 218 219 221 220 218 217 217 220 221 219 219 219 218 216 216 216 216 215 213 214 215 215 214 213 211 209 209 208 208 206 203 201 201 201 202 202 201 198 194 191 188 184 180 177 175 171 169 167 164 159 157 155 149 142 131 120 106 95 80 63 52 45
221 225 250 261 270 268 270 269 247 239 242 198 219 271 269 252 240 274 260 261 277 275 254 252 229 221 214 212 207 201 210 214 218 220 221 224 225 227 226 221 219 220 223 221 220 221 220 218 217 217 217 216 215 214 215 215 215 215 214 212 210 210 210 209 208 206 205 204 205 205 206 203 200 197 193 190 186 181 179 177 175 172 171 169 166 165 159 156 151 139 127 109 89 74 60 51 46
202 218 265 256 270 281 253 251 242 223 246 194 200 260 272 293 146 264 263 250 296 320 282 275 223 231 230 222 218 209 214 219 219 217 221 225 223 228 227 221 221 224 223 222 223 222 220 218 218 217 217 216 215 214 215 216 216 216 215 213 212 211 211 210 209 209 208 207 208 208 208 205 202 200 196 193 188 184 183 181 179 178 177 174 172 173 168 165 161 152 138 114 83 60 49 47 42
209 253 297 278 294 299 258 252 252 204 256 204 189 253 279 325 182 246 262 252 33 330 293 285 239 239 240 230 229 216 221 229 222 213 217 221 220 223 223 220 223 224 222 224 224 221 219 220 219 217 216 215 215 215 215 216 217 216 215 213 212 212 212 211 210 210 210 210 210 210 210 205 202 202 199 196 192 189 187 186 184 182 182 180 177 178 175 171 167 160 147 124 87 60 45 42 33
300 30 322 294 333 311 275 274 246 179 224 189 157 261 284 255 235 243 255 259 301 298 282 278 257 245 245 238 235 226 231 233 220 215 223 224 225 223 222 225 224 222 224 226 223 220 222 221 219 217 215 214 214 216 216 216 217 216 216 214 213 213 212 212 212 212 212 211 211 210 210 206 204 205 202 199 197 194 192 190 188 185 184 183 181 180 179 175 170 162 151 137 117 80 50 44 26
297 21 349 297 338 307 281 29 50 166 191 170 142 273 268 240 249 253 256 260 268 271 267 271 268 260 251 238 235 236 237 232 219 223 228 230 231 227 228 231 226 224 226 223 221 223 223 220 218 216 213 214 214 215 215 215 216 216 215 214 213 214 213 213 213 213 214 212 212 212 210 208 207 207 205 203 200 197 196 193 191 188 186 186 185 183 181 178 171 166 157 149 144 126 78 33 6
302 305 276 307 311 285 300 67 58 279 216 163 154 254 261 257 261 260 262 251 236 251 261 264 268 269 263 246 236 243 241 230 229 233 232 233 236 232 232 234 228 226 224 221 224 225 222 218 216 215 213 214 213 213 214 214 215 215 215 214 213 214 214 214 214 214 214 213 213 213 211 210 209 208 207 206 203 200 198 196 193 190 189 188 186 184 183 180 174 170 164 162 164 166 221 325 350
3 284 281 319 226 272 307 306 205 240 261 138 158 237 261 262 266 267 270 236 209 235 258 262 265 266 268 265 249 250 253 239 238 242 239 237 238 235 234 234 230 226 224 223 225 222 219 218 216 214 213 213 213 213 213 213 214 214 215 214 213 214 214 215 215 215 215 214 213 213 212 212 211 209 208 208 206 203 200 198 195 192 191 189 188 185 183 182 178 176 171 171 177 178 223 308 344
345 231 253 271 253 273 313 300 230 217 244 165 199 234 266 264 265 272 280 237 215 232 259 263 263 265 266 272 268 264 269 261 249 245 242 239 239 236 234 234 231 228 227 224 222 219 218 218 215 214 214 213 212 211 211 211 212 213 214 214 214 214 215 216 215 215 214 214 213 213 213 213 213 211 209 209 208 206 203 200 196 193 192 190 189 187 184 183 182 182 176 169 175 182 196 280 337
290 237 235 247 250 258 296 296 284 206 192 212 229 240 252 260 269 282 290 270 247 242 258 263 262 267 266 266 269 267 269 269 263 249 242 242 241 238 236 235 233 230 229 225 221 220 219 217 214 214 215 213 211 209 208 209 210 212 213 213 213 214 215 216 215 215 214 214 214 214 214 214 215 213 210 209 209 209 204 200 198 195 193 192 191 189 186 184 183 185 181 171 173 185 194 293 331
240 230 244 258 244 246 256 268 286 298 233 213 229 251 252 263 273 282 282 274 270 258 257 264 263 265 266 264 264 262 264 265 265 258 249 247 245 242 238 234 232 230 228 226 222 221 219 217 215 213 212 210 208 207 205 205 208 209 210 212 213 214 214 215 216 215 215 215 215 215 215 215 215 214 212 210 210 209 205 201 200 197 196 194 193 191 189 188 186 185 184 177 173 180 233 323 335
232 228 240 258 257 249 240 250 259 277 278 255 243 257 258 264 268 272 274 272 271 268 264 265 263 262 264 264 261 259 261 260 262 265 260 251 246 243 239 234 230 229 228 225 220 217 216 215 212 211 209 207 203 201 201 201 202 204 206 207 210 212 213 215 216 216 216 216 216 216 215 215 216 214 212 211 210 210 206 203 201 199 198 197 197 196 193 192 190 188 186 183 180 179 204 314 332
250 246 248 250 259 263 250 258 263 243 280 262 240 261 266 263 264 262 269 274 273 272 271 267 262 260 260 261 262 260 258 258 264 271 266 254 249 243 236 231 225 224 224 221 217 214 214 213 209 208 206 203 199 198 197 197 198 198 200 204 207 210 211 213 215 216 217 217 217 216 216 216 216 214 213 212 211 210 208 205 202 201 200 200 201 200 196 192 191 192 190 183 184 186 183 245 331
262 246 262 260 245 262 258 259 269 244 223 259 245 268 270 262 264 262 265 270 264 264 268 270 268 262 259 259 262 262 260 263 268 272 267 252 245 239 228 223 217 216 218 216 215 214 212 210 208 207 203 199 199 199 197 198 200 200 201 204 207 208 209 211 213 214 215 216 216 216 216 216 215 215 214 212 212 211 208 206 204 203 203 201 199 196 195 195 194 196 196 189 184 185 188 177 11
244 241 268 268 245 271 269 250 266 265 190 272 271 268 268 262 262 258 254 257 252 253 257 264 270 268 263 257 260 265 265 268 266 265 268 248 229 227 220 216 215 217 218 215 214 213 209 207 207 205 201 199 200 200 199 200 202 203 203 205 206 206 209 211 212 213 213 214 215 216 217 216 216 216 215 214 213 212 210 209 207 206 204 201 197 195 196 197 198 198 198 199 190 179 179 172 121
221 220 244 262 248 264 266 246 279 294 213 273 287 277 272 258 258 254 244 248 249 251 254 258 263 263 261 256 256 264 266 268 267 266 270 244 209 215 212 213 215 215 216 213 210 209 206 206 205 202 201 200 199 200 201 201 201 201 202 206 206 205 208 209 211 213 213 213 215 216 217 217 217 216 215 214 214 213 212 211 210 207 206 203 200 200 201 200 201 200 200 202 198 184 176 175 168
223 209 218 250 245 239 251 275 339 325 274 280 294 293 284 225 229 249 241 244 248 249 253 259 260 255 256 259 259 259 261 265 267 269 272 249 202 212 214 216 216 213 214 213 209 207 206 205 204 202 201 200 199 199 199 198 196 195 196 199 199 200 204 204 205 210 211 213 214 214 216 216 216 217 215 215 215 215 214 213 212 210 207 205 204 206 207 205 204 203 203 205 203 195 185 178 170
253 211 207 235 246 248 259 292 342 340 308 307 333 308 296 196 189 236 246 242 246 244 245 250 256 255 254 263 265 257 255 259 262 267 272 264 224 213 219 218 214 215 218 216 212 209 207 205 202 200 199 199 198 198 196 195 193 192 191 189 188 191 195 199 205 208 209 210 212 213 214 214 215 216 216 215 216 216 216 215 214 212 210 207 206 207 208 207 204 203 204 204 202 198 192 183 173
271 226 205 227 243 255 261 275 311 282 261 298 73 193 287 281 192 218 232 234 244 245 241 244 251 258 256 256 261 262 259 258 260 263 265 262 241 214 220 218 215 220 222 218 213 210 206 203 200 199 198 197 197 196 195 194 193 193 193 193 193 193 197 205 209 210 210 210 210 212 213 213 215 216 217 216 216 217 217 217 215 214 212 210 208 207 206 207 205 203 203 200 199 198 194 188 179
267 232 195 207 221 236 236 226 223 235 274 299 207 148 271 289 253 193 205 218 242 252 248 247 251 259 260 253 256 264 265 262 262 263 260 259 250 227 225 224 223 226 223 215 211 208 205 203 200 198 197 197 196 196 195 195 195 195 196 198 200 201 204 209 210 209 211 210 210 212 213 213 215 216 217 217 216 217 217 217 216 214 213 212 210 208 207 207 204 202 200 197 198 199 197 193 186
257 168 157 173 187 200 158 161 200 256 336 297 234 144 225 279 278 140 193 218 240 252 247 248 254 261 263 261 260 262 266 268 258 254 261 261 246 233 232 232 231 227 219 213 210 207 204 201 199 197 196 196 196 196 196 197 198 198 198 199 202 206 209 211 209 208 210 210 209 211 212 213 214 215 216 217 217 218 218 217 215 214 213 212 210 209 207 206 205 204 203 201 200 199 197 198 196
227 109 96 80 88 86 100 143 157 69 311 263 201 168 203 278 283 83 89 229 237 249 250 255 260 262 264 266 268 265 265 269 261 252 260 257 241 237 236 234 230 223 215 210 206 203 200 198 196 195 196 196 196 197 197 198 200 200 201 202 204 207 207 208 208 207 208 209 208 209 211 212 213 213 215 217 218 218 218 217 216 214 214 212 210 208 206 205 205 206 207 206 205 201 198 199 200
130 94 55 31 29 31 61 59 85 78 282 242 181 184 182 276 280 136 169 230 218 238 262 271 266 263 265 264 266 268 264 270 286 290 284 285 275 252 234 226 220 212 206 202 200 198 196 195 194 195 197 197 197 198 199 200 201 202 204 205 206 206 204 203 203 204 205 206 206 208 209 210 212 214 214 215 217 218 218 218 216 215 214 212 211 209 208 207 205 206 206 205 205 204 203 200 199
110 87 62 15 332 5 31 353 54 143 263 232 181 182 175 234 257 167 261 270 229 222 238 255 259 261 268 268 267 273 275 292 324 320 316 326 309 268 230 216 204 196 193 193 194 193 193 194 194 195 196 198 199 199 200 201 202 204 206 207 208 207 205 204 204 204 204 204 206 206 206 208 211 213 213 214 215 216 217 217 216 215 214 213 211 210 208 208 206 205 204 204 204 203 203 203 201
121 112 123 210 309 343 351 312 95 204 257 241 177 171 198 244 255 249 265 270 252 231 225 235 245 254 265 275 285 293 297 317 337 318 315 314 289 273 252 224 197 191 191 190 190 191 192 193 194 196 197 198 199 200 202 203 204 207 208 209 210 209 208 208 208 208 207 207 206 204 204 206 208 210 211 213 214 214 215 216 216 215 215 213 212 210 209 208 207 205 204 205 205 204 204 205 205
155 155 159 170 212 248 258 265 273 259 267 277 165 171 250 273 273 234 236 253 260 248 235 234 237 252 269 283 300 298 292 312 346 311 304 297 286 286 268 246 217 202 196 193 191 191 192 194 195 197 199 199 200 202 204 205 208 210 210 211 211 210 210 211 212 211 211 209 208 207 208 208 208 210 212 213 214 213 214 216 217 216 215 214 213 211 209 208 207 206 206 206 206 205 205 206 207
184 164 144 177 191 188 213 228 252 264 274 320 207 186 225 267 281 239 236 262 296 283 257 258 260 262 274 286 289 286 288 317 359 328 309 291 277 271 257 251 238 220 204 198 196 194 194 196 197 198 199 201 201 203 205 207 211 212 212 213 213 212 213 214 214 214 213 213 211 211 211 211 212 213 214 214 214 214 214 215 216 217 216 215 214 211 210 209 207 206 206 207 206 204 204 205 206
218 132 119 223 206 176 215 238 230 244 287 286 229 220 232 245 274 272 262 280 288 276 280 308 297 280 294 302 292 297 308 320 331 322 311 294 279 265 251 246 241 231 214 205 201 199 199 199 201 202 202 202 203 205 207 210 212 212 213 215 215 215 215 215 216 217 216 216 215 213 213 214 215 215 215 215 215 215 215 215 215 216 216 215 214 212 210 209 207 207 206 206 205 203 204 205 205
200 130 186 232 162 154 220 262 247 111 258 247 230 256 273 293 288 290 336 317 291 289 299 297 289 300 324 316 304 311 313 312 312 308 298 291 292 285 265 250 243 235 223 214 208 203 203 203 204 207 206 205 206 208 210 211 212 213 215 216 217 216 216 217 218 218 217 217 216 216 216 216 217 217 216 215 215 215 215 215 214 215 215 215 214 213 211 210 208 208 207 206 204 203 204 205 206
133 174 228 245 63 119 171 259 320 237 248 243 236 258 271 287 280 304 18 342 303 303 314 305 308 324 314 302 302 295 292 302 302 292 276 264 269 281 276 262 249 242 238 230 219 211 207 207 207 208 210 210 210 211 211 212 213 215 217 217 218 218 218 219 220 219 218 216 217 217 217 217 218 217 216 215 215 215 215 215 214 214 214 213 213 212 211 210 209 208 208 207 205 204 203 204 205
137 201 257 103 160 256 154 177 227 235 247 249 229 249 262 253 254 278 301 287 275 282 326 338 334 324 309 311 308 297 301 309 305 306 310 300 273 254 263 267 257 248 248 245 235 223 215 211 211 213 216 217 216 214 214 215 216 218 220 220 220 219 219 220 220 220 219 217 218 218 217 218 218 217 215 214 214 214 214 214 213 213 213 212 212 211 210 209 209 209 208 207 206 204 203 203 204
78 292 320 60 176 201 188 190 196 228 248 254 234 235 249 248 243 254 257 247 245 261 319 323 300 286 289 299 301 306 318 318 317 328 331 328 317 291 260 269 268 255 250 247 241 233 224 216 214 216 221 222 221 220 218 219 219 220 221 222 222 221 221 222 220 219 219 219 219 218 217 218 218 216 215 214 214 214 214 214 213 212 211 211 210 209 209 209 208 209 209 207 205 204 204 205 204
182 258 270 264 227 209 246 237 186 230 253 259 252 242 244 262 266 255 254 245 218 203 222 279 290 299 301 305 310 315 321 321 323 325 322 319 314 312 304 284 275 262 251 244 240 238 233 226 220 219 222 222 223 223 222 223 224 222 221 221 222 222 222 222 221 220 220 220 219 219 219 219 218 217 216 214 214 214 214 214 212 211 211 210 209 208 208 208 207 208 209 208 206 204 204 205 204
172 207 230 239 239 250 273 259 223 220 254 254 261 261 251 272 284 265 233 213 207 202 247 297 311 316 313 313 313 312 314 313 310 310 311 307 303 312 317 300 279 261 249 241 238 239 237 234 229 224 222 223 224 225 226 228 226 224 224 223 223 223 222 221 221 221 221 221 220 220 220 218 217 217 216 214 213 213 213 212 211 211 210 210 209 208 208 207 207 207 207 207 206 205 205 204 203
Height
814 814 813 814 813 813 815 816 830 838 839 846 845 841 830 823 825 820 817 814 813 809 807 808 808 808 809 811 808 806 807 809 811 822 822 806 802 804 804 806 807 808 810 812 815 816 818 820 821 822 823 824 825 825 827 827 828 829 830 830 831 831 832 832 833 834 834 834 834 835 835 835 836 836 837 836 837 836 837 837 837 837 837 837 837 837 837 837 837 837 837 837 838 838 838 838 838
813 814 813 814 813 814 820 822 837 847 844 847 843 839 828 823 826 817 813 811 810 808 808 809 808 808 807 806 805 806 806 806 805 807 806 803 805 804 804 806 806 808 809 812 814 815 817 818 820 821 823 824 824 825 825 826 827 828 829 829 830 831 831 832 833 833 833 834 834 835 835 836 836 836 836 836 836 837 837 837 837 837 837 837 837 837 837 837 837 837 837 837 838 838 838 838 838
813 814 814 814 814 816 822 825 839 851 850 848 838 831 828 822 819 812 809 807 807 809 810 809 808 807 807 808 806 807 806 805 806 805 805 804 804 802 803 805 807 809 809 812 813 815 816 817 819 820 822 823 823 824 825 826 826 827 828 829 830 830 831 831 832 833 833 834 834 835 835 836 836 836 836 836 836 837 837 837 837 837 837 837 838 838 837 837 837 837 837 838 838 838 838 838 838
814 814 814 814 818 819 826 832 841 849 849 852 838 823 822 817 811 809 809 808 810 811 810 809 808 806 806 808 806 806 804 802 801 801 803 801 799 800 802 805 807 809 810 811 813 814 816 817 818 819 821 822 823 823 824 825 826 827 828 828 829 830 831 831 832 832 833 833 834 834 835 835 835 835 835 835 836 836 836 836 836 837 837 837 837 837 837 837 837 837 838 838 838 838 838 838 838
814 814 815 813 821 824 830 841 848 849 841 842 834 817 816 813 809 808 809 810 810 811 810 810 808 806 806 806 804 803 800 799 798 798 798 797 797 799 801 804 806 808 809 811 812 814 815 817 818 819 820 821 822 823 824 824 825 826 827 828 829 830 830 831 831 832 833 833 833 834 834 834 834 835 835 835 835 836 836 836 836 836 836 837 837 837 837 837 837 837 837 838 838 838 838 838 838
814 814 815 813 821 824 832 844 846 845 832 830 827 814 811 809 810 808 809 810 809 810 810 810 808 807 806 803 802 799 797 796 795 795 796 795 796 798 801 803 805 807 809 811 812 814 815 816 817 818 820 820 821 822 823 824 825 826 827 828 828 829 830 830 831 831 832 832 833 833 833 833 834 834 834 834 834 835 835 835 835 836 836 836 836 836 837 837 837 837 837 837 837 837 837 837 837
814 815 817 818 824 826 836 843 841 840 828 826 823 812 807 806 811 811 810 810 808 809 809 809 807 807 806 802 800 796 794 794 794 794 794 794 795 797 800 802 804 807 808 810 812 813 815 816 817 818 819 820 821 821 822 823 824 825 826 827 828 829 829 830 830 830 831 831 831 831 832 832 832 832 833 833 833 834 834 834 835 835 836 836 836 836 836 836 836 836 836 836 836 836 836 837 836
814 817 822 824 831 835 842 843 840 840 829 825 821 812 807 806 812 812 810 811 809 808 808 807 807 808 805 803 801 795 794 794 794 794 794 794 794 796 799 801 803 805 808 809 811 813 814 815 816 817 818 819 820 821 821 823 823 824 825 826 827 828 828 829 829 829 830 830 830 831 831 831 832 832 832 832 832 833 833 834 834 835 835 835 836 836 836 836 836 836 836 836 836 836 836 836 836
814 818 824 827 835 840 843 843 839 837 829 822 818 811 807 808 811 810 809 810 809 808 807 806 806 808 805 803 800 794 794 793 793 794 794 795 794 796 797 799 801 803 806 808 810 811 813 814 815 817 818 819 820 820 821 822 823 823 824 825 826 826 827 828 828 828 829 829 830 830 830 831 831 831 831 832 832 832 833 833 833 834 834 835 835 835 836 836 836 836 836 836 835 835 835 835 835
817 820 826 831 838 842 843 841 836 831 824 820 816 809 807 808 810 809 809 808 808 807 806 806 807 806 805 803 798 793 792 791 793 793 793 795 795 796 797 799 800 802 804 806 809 810 812 813 814 815 817 818 819 820 821 822 822 823 823 824 825 826 826 827 827 827 828 828 829 829 830 830 830 831 831 831 832 832 832 832 833 833 834 834 834 835 835 835 836 836 835 835 835 835 835 835 835
822 824 826 833 840 841 839 836 830 825 821 821 814 805 805 807 808 810 810 807 806 806 805 807 806 804 805 802 795 791 790 790 791 792 793 794 796 797 797 799 801 803 804 805 808 809 811 812 813 814 815 817 818 819 820 821 821 822 823 823 824 825 825 826 826 826 827 827 827 828 829 829 830 830 831 831 831 831 832 832 832 833 833 834 834 835 835 835 835 835 835 835 835 835 835 835 835
825 829 829 836 841 837 838 837 829 824 821 820 809 800 805 807 807 806 807 806 804 806 805 804 801 800 804 802 794 790 790 789 790 791 793 794 795 797 798 799 801 803 804 806 807 808 810 811 812 813 814 816 817 818 818 819 820 821 821 822 823 823 824 824 825 825 825 826 826 827 828 829 829 830 830 831 831 831 832 832 832 833 833 834 834 835 835 835 835 835 835 835 836 836 836 836 836
825 832 831 836 843 841 841 839 831 829 822 813 806 803 806 805 804 802 803 805 804 806 801 798 797 797 802 798 792 790 789 788 789 791 792 793 795 796 798 799 801 803 804 805 806 807 809 810 811 812 813 815 816 817 817 818 819 819 820 821 821 821 822 823 823 824 825 825 826 826 827 828 829 829 830 830 831 831 832 832 833 833 834 834 835 835 835 835 836 836 836 836 836 836 836 836 836
824 830 830 836 846 844 840 834 828 830 819 807 806 806 806 803 801 801 803 804 803 802 796 794 796 798 799 796 792 788 786 786 788 790 791 793 794 796 798 799 801 802 804 805 805 806 807 809 810 811 812 814 815 816 817 817 818 818 819 819 820 821 821 822 823 823 824 824 825 826 827 827 828 829 829 830 830 831 831 832 833 833 834 834 835 835 835 836 836 836 836 836 836 836 836 836 836
823 828 831 836 844 842 837 833 827 829 819 806 806 806 805 802 800 801 801 801 799 796 795 794 795 797 797 794 790 786 784 785 787 789 791 793 794 796 797 799 800 801 803 803 805 805 806 807 808 810 811 812 813 814 815 816 817 818 818 819 819 820 821 821 822 822 823 824 824 825 826 827 828 828 829 829 830 830 831 832 832 833 834 834 835 835 836 836 837 837 837 837 837 837 836 836 836
823 826 834 837 842 841 835 833 831 830 817 806 807 807 804 800 799 800 798 798 796 794 795 794 793 793 791 789 787 784 784 785 787 789 791 793 794 796 797 798 799 800 801 802 803 803 804 806 806 808 809 810 811 812 814 815 816 816 817 818 819 819 820 821 821 822 822 823 824 824 825 826 827 827 828 829 829 830 831 831 832 833 834 834 835 836 836 837 837 837 837 837 837 837 837 837 836
823 826 836 839 841 841 832 829 828 822 811 804 805 805 804 801 800 798 796 797 796 795 794 792 790 789 787 786 785 784 785 785 787 789 791 793 794 795 796 797 798 798 799 799 800 801 802 803 804 805 806 808 809 811 812 813 814 815 816 817 818 818 819 820 820 821 822 822 823 824 825 825 826 827 827 828 829 830 830 831 832 833 833 834 835 836 836 837 837 837 837 838 837 837 837 837 836
824 832 838 837 838 834 822 819 816 813 808 804 803 804 805 803 799 797 797 796 795 795 793 791 789 787 787 786 785 785 785 786 787 788 790 792 793 794 794 794 794 794 795 796 797 798 799 800 802 803 804 806 807 809 810 811 812 813 814 815 816 817 818 819 819 820 821 822 823 824 824 825 826 826 827 827 828 829 830 830 831 832 833 834 835 835 836 837 837 838 838 838 838 838 837 837 837
826 836 839 833 829 822 814 812 810 809 807 804 804 805 806 803 800 799 798 796 795 795 792 792 790 786 786 786 786 786 786 786 786 787 787 788 788 788 789 790 791 791 791 791 792 794 796 798 799 801 802 804 805 807 808 809 811 811 813 814 815 816 816 817 818 819 820 821 822 823 824 825 825 826 826 827 827 828 829 830 831 832 832 833 834 835 836 836 837 837 837 838 838 838 838 837 837
826 833 835 826 819 816 812 811 808 806 806 805 805 806 806 802 800 800 798 796 794 792 790 791 790 784 781 784 786 786 786 786 785 786 785 784 784 784 784 785 786 785 785 786 789 791 793 795 796 798 800 801 803 804 806 807 809 810 811 812 813 814 815 816 817 818 819 820 821 822 823 824 825 826 826 827 827 828 828 829 830 831 832 833 833 834 835 835 836 837 837 837 837 837 837 837 837
825 828 825 818 817 816 807 806 806 805 807 807 804 806 805 799 800 799 796 798 790 783 784 785 783 779 777 782 785 785 786 785 785 784 783 783 782 782 781 780 780 780 783 786 787 788 789 791 793 795 797 799 801 802 803 805 806 808 809 811 812 813 814 815 816 817 818 819 820 821 822 823 824 825 826 826 827 827 828 829 829 830 831 832 833 833 834 834 835 835 836 836 836 836 836 836 836
823 821 815 813 817 814 802 802 805 804 806 806 804 805 801 798 798 795 796 799 784 773 778 777 775 774 773 778 781 783 784 783 784 783 781 781 780 779 779 778 780 781 783 783 783 784 786 789 790 792 794 796 798 799 801 803 804 806 807 809 810 811 812 814 815 816 817 818 819 820 821 822 823 824 825 826 826 827 827 828 828 829 829 830 831 832 832 833 834 834 834 834 835 834 834 834 834
820 816 812 810 813 810 801 801 803 804 806 804 804 802 799 798 795 792 793 790 773 766 773 773 771 771 770 773 778 780 781 781 779 778 776 776 776 775 775 776 777 778 778 778 779 782 784 786 788 790 792 793 795 797 799 800 802 803 805 807 808 809 811 812 813 814 816 817 818 819 820 821 822 823 824 825 825 826 826 826 827 827 828 829 830 831 831 832 833 833 833 833 833 833 833 833 832
819 815 810 808 808 807 801 801 802 804 804 801 803 801 799 798 794 791 788 777 767 767 770 769 769 769 770 772 774 775 775 775 773 771 770 770 769 769 770 772 773 775 776 775 777 779 780 782 785 787 788 790 792 794 796 798 799 801 803 804 806 807 809 810 811 813 814 815 817 818 819 820 821 822 823 823 824 824 825 825 826 826 827 828 828 830 830 831 831 832 832 832 832 832 832 831 831
818 814 809 807 806 804 801 802 803 802 802 801 802 799 794 794 795 790 780 768 763 766 767 766 768 768 770 769 769 772 771 771 770 769 769 768 768 770 771 772 774 775 772 772 774 775 776 778 781 783 784 787 789 791 793 795 797 799 800 801 803 805 806 808 810 811 813 814 815 816 818 819 820 821 821 822 822 823 824 824 824 825 826 827 827 829 829 830 830 831 831 831 831 831 831 831 831
813 809 808 806 804 801 800 800 800 800 799 799 800 796 789 790 794 785 770 763 761 764 765 764 766 767 766 766 767 769 769 768 767 767 767 767 769 770 769 770 772 769 766 769 771 770 772 776 777 779 781 783 786 788 790 791 794 795 797 798 800 802 804 806 808 809 811 812 813 814 816 817 818 819 820 820 821 821 822 823 823 824 825 826 827 827 828 829 829 830 830 831 831 831 831 831 831
809 809 807 805 804 801 799 798 797 799 796 795 797 793 786 790 795 781 761 759 762 761 763 763 765 764 763 764 765 766 766 764 762 764 765 767 768 765 764 767 766 762 764 767 765 766 770 772 773 775 778 780 783 785 786 788 790 792 793 796 798 799 802 804 805 807 808 810 811 813 814 815 817 817 818 819 819 820 821 822 822 823 824 825 826 827 827 828 829 829 830 830 830 831 831 831 831
808 809 806 802 803 800 795 795 796 797 794 790 793 792 788 792 794 777 757 757 762 762 762 762 763 762 761 762 762 764 763 759 760 763 763 761 759 757 758 759 757 757 760 759 759 764 766 767 769 772 774 777 779 781 783 785 786 789 791 793 795 797 799 801 802 804 805 807 809 811 812 813 815 816 817 817 818 819 820 820 821 822 823 824 825 826 826 827 828 828 828 829 829 830 830 830 830
808 809 809 802 803 798 787 789 793 793 791 786 792 795 791 789 781 765 756 758 761 764 761 759 760 759 759 759 760 760 757 756 759 759 754 751 749 750 751 749 750 753 753 754 759 762 761 763 765 768 771 773 775 777 779 782 783 786 788 790 792 794 797 798 799 801 803 805 807 808 810 811 813 814 815 816 817 818 819 819 820 820 821 822 823 824 825 826 826 827 827 828 828 829 829 830 830
807 810 812 807 809 800 783 787 792 791 791 786 791 797 788 778 768 757 757 759 761 764 760 756 756 755 755 756 756 755 753 753 753 749 745 744 745 746 745 744 747 748 749 753 756 755 756 759 762 764 767 768 770 773 775 778 780 783 785 787 790 792 793 795 797 799 801 802 804 806 808 809 811 812 814 815 816 817 817 818 818 819 820 821 822 823 824 824 825 825 826 826 827 828 828 829 829
810 813 814 815 817 801 783 789 795 791 789 784 789 797 786 770 762 755 756 759 762 762 758 755 754 752 752 751 752 751 748 747 745 741 740 741 740 741 740 740 743 744 747 750 748 749 752 755 758 760 762 764 766 769 771 774 777 779 782 784 787 789 791 793 795 796 798 800 802 804 805 807 809 811 812 813 814 815 816 816 817 818 819 820 821 822 822 823 824 824 825 825 826 826 827 828 828
815 817 816 820 821 807 790 788 790 787 785 787 790 792 784 771 760 754 756 758 760 760 755 753 752 751 749 748 748 747 742 741 739 736 737 737 735 735 735 735 738 740 741 742 743 746 750 751 753 755 757 760 762 764 767 770 774 776 779 782 784 786 788 790 792 794 796 797 799 801 803 805 807 809 810 811 812 813 814 814 815 816 817 818 819 820 821 821 822 823 823 824 825 825 826 827 827
820 823 819 818 818 814 803 786 781 783 784 787 787 783 778 767 757 753 756 757 758 759 754 751 751 749 748 747 745 743 739 735 734 731 730 730 729 729 730 730 732 734 735 737 740 743 745 746 749 751 752 754 756 760 764 767 771 774 776 779 782 784 786 787 790 791 793 795 797 799 801 803 804 806 808 809 810 811 812 813 814 815 816 817 818 819 819 820 821 821 822 823 824 824 825 825 826
820 823 823 819 815 814 808 789 778 783 785 785 785 783 775 763 756 754 755 756 758 758 753 749 749 748 747 746 744 740 736 732 727 723 723 723 723 724 725 726 728 730 732 734 736 738 739 742 744 746 748 751 754 758 762 765 768 772 774 777 779 781 783 785 787 789 791 792 794 796 798 800 802 804 806 807 808 810 811 812 813 813 814 815 816 817 818 819 819 820 821 821 822 823 823 824 824
813 815 815 816 815 813 811 797 780 779 782 784 788 786 776 767 762 759 755 755 757 755 752 748 747 746 743 742 740 736 732 728 719 714 717 718 718 720 720 722 725 726 729 730 733 735 737 740 741 744 746 749 753 756 760 764 767 770 772 775 778 779 781 783 785 786 788 790 791 793 796 798 800 801 803 805 806 808 809 810 811 812 812 813 814 815 816 816 817 818 819 820 820 821 821 822 823
804 808 808 809 810 807 805 795 782 779 782 785 788 781 772 769 766 760 754 752 754 751 748 745 743 742 739 737 734 730 727 722 711 708 712 714 713 715 716 718 720 722 724 726 729 732 733 735 738 740 743 745 750 754 758 761 764 767 770 772 774 775 777 779 781 783 785 787 788 791 793 795 797 799 801 803 804 805 807 808 808 809 810 811 812 813 814 814 816 816 817 818 818 819 820 821 821
805 809 810 809 810 804 796 790 780 782 786 779 778 773 767 766 762 757 751 750 751 747 742 739 737 736 734 732 727 722 721 713 706 706 707 709 710 711 713 714 716 719 720 722 724 726 727 730 732 734 738 742 745 748 751 754 757 760 764 765 766 769 772 775 777 779 781 783 785 788 790 792 794 796 798 800 801 803 804 805 806 807 808 809 810 811 812 813 814 814 815 816 817 817 818 819 820
807 810 811 811 812 801 790 787 779 782 788 777 773 771 764 761 758 753 751 750 748 742 737 732 729 729 729 726 721 715 712 707 704 704 702 705 707 708 710 711 712 714 714 717 718 719 722 725 727 730 733 737 739 741 744 747 749 751 754 756 759 763 766 768 770 773 776 779 782 785 787 789 791 793 795 797 799 800 801 803 803 804 805 807 809 810 811 811 812 812 813 814 815 816 817 818 819
809 812 815 812 810 799 787 784 780 784 788 777 774 771 758 756 754 749 748 744 739 735 732 728 724 724 723 719 714 709 706 704 701 699 697 700 704 705 706 707 707 708 709 711 713 716 719 721 723 726 729 731 734 737 739 741 744 748 751 754 757 761 763 765 768 770 774 777 779 782 784 786 788 790 793 794 796 797 799 800 801 802 803 805 806 807 808 809 810 810 811 812 813 814 815 817 818
809 810 812 808 803 799 788 782 782 787 788 779 777 770 753 752 750 744 742 734 730 730 727 725 722 719 715 710 707 706 703 699 697 695 694 698 702 702 703 703 703 705 707 708 710 713 715 717 719 722 724 727 730 733 736 739 744 749 753 755 758 761 762 765 768 770 772 775 777 779 780 782 785 787 790 791 793 795 796 798 799 800 801 803 804 805 805 807 807 808 809 810 810 812 814 815 816
801 803 806 800 794 795 789 785 786 788 786 780 781 766 738 736 744 736 732 729 728 728 725 722 718 711 707 704 703 704 701 696 695 692 692 695 699 700 699 700 701 702 703 703 704 707 708 711 715 718 721 724 727 730 734 739 743 747 751 755 758 761 763 764 766 767 768 770 771 773 775 779 782 784 786 789 790 792 794 796 797 798 799 801 802 803 804 805 806 807 808 808 809 810 812 814 815
792 795 797 788 784 789 789 790 794 793 789 783 786 773 734 721 734 732 725 728 728 725 725 721 712 703 703 704 701 700 698 695 694 692 691 693 695 697 697 698 699 699 698 699 700 703 705 708 712 716 719 722 725 729 733 736 739 742 745 749 752 755 758 758 757 758 760 763 765 768 772 775 778 781 783 786 788 790 791 793 794 796 797 798 800 801 802 803 804 805 806 807 808 809 810 812 814
791 787 784 781 786 791 790 794 797 795 791 788 789 786 757 726 723 727 723 725 723 719 720 716 706 700 702 704 698 694 695 693 693 692 690 689 691 694 695 695 696 695 694 697 700 702 704 707 710 713 716 719 723 727 730 733 736 738 740 741 744 746 748 748 749 752 755 758 762 765 769 772 774 777 779 782 784 786 788 789 791 793 795 796 797 799 800 801 802 803 805 806 807 808 809 810 812
789 781 777 777 784 788 790 794 798 796 793 792 787 787 784 749 717 718 718 718 719 716 714 709 701 700 699 699 695 693 692 690 690 690 686 687 689 691 692 692 692 691 693 696 698 700 702 705 708 710 714 717 720 724 726 729 731 734 736 738 740 741 742 743 747 751 753 756 760 762 765 768 770 773 775 778 780 782 784 785 787 789 791 793 794 796 797 799 800 801 803 804 805 807 807 809 810
783 784 784 782 784 787 790 791 795 802 796 793 790 786 791 761 718 717 724 721 722 714 708 702 698 699 696 693 692 691 689 687 687 686 683 685 688 688 688 688 689 689 691 693 694 697 700 703 706 709 712 714 717 720 722 725 727 730 732 734 736 738 740 743 746 749 751 754 757 759 762 764 767 769 772 774 776 778 780 781 784 785 787 789 790 792 794 796 797 798 800 801 803 804 805 806 808
783 789 788 788 791 790 794 791 789 799 792 787 792 786 784 757 715 718 730 725 720 710 705 704 700 699 695 691 690 688 687 683 681 682 682 684 685 686 686 686 688 688 690 691 693 696 698 701 704 706 709 711 714 717 719 722 724 726 729 730 732 735 738 742 745 747 749 751 754 756 758 760 763 766 768 771 773 774 776 778 780 781 783 785 787 788 790 791 793 795 797 799 800 801 803 804 805
786 788 784 786 791 789 796 795 789 796 788 777 779 775 779 760 718 715 723 715 712 706 702 703 698 695 692 689 688 685 684 681 680 682 682 685 686 685 686 686 687 688 690 692 693 695 697 699 702 704 707 709 711 714 716 718 721 723 724 726 728 731 735 738 740 743 745 747 749 751 753 756 759 761 764 766 769 770 773 775 776 778 780 781 783 784 786 787 789 791 794 796 797 799 800 801 803
786 785 784 785 789 790 796 798 796 799 783 767 767 769 777 759 719 712 716 710 710 706 699 696 692 689 687 687 688 685 683 683 685 686 685 687 687 686 687 686 687 689 689 691 692 694 697 698 701 703 705 707 709 712 714 716 718 719 721 723 725 727 730 732 734 736 738 741 743 746 750 753 755 757 760 761 763 766 769 771 773 775 776 777 778 780 782 784 786 788 790 792 794 795 796 798 799
787 788 790 793 797 796 796 798 800 796 776 766 773 776 771 743 711 710 712 704 703 703 700 695 690 687 683 684 687 686 685 687 689 690 688 687 686 687 689 687 687 688 688 689 691 692 694 696 699 700 702 705 708 710 712 714 715 716 717 719 721 724 726 727 729 731 733 735 739 742 745 747 749 751 753 755 757 761 764 767 769 771 772 773 775 777 779 781 783 784 786 788 790 791 793 794 796
788 786 787 795 799 799 796 795 797 788 770 770 781 778 761 732 709 706 702 695 696 698 699 696 692 691 687 687 691 688 685 687 690 690 687 687 687 689 691 690 689 688 688 689 689 691 692 694 696 697 699 702 705 707 710 711 712 712 714 716 719 722 723 724 725 727 730 732 735 737 738 741 743 744 746 749 752 757 760 762 765 768 769 771 773 775 777 778 779 781 782 784 786 788 790 792 793
781 775 776 783 781 783 785 779 775 767 759 771 784 772 749 726 709 702 698 696 697 697 697 698 697 696 693 691 691 687 683 686 690 690 688 688 688 689 688 689 690 689 688 689 689 690 691 692 693 694 696 698 701 704 706 707 708 710 714 715 717 718 719 721 722 724 726 728 730 732 734 736 738 740 742 746 750 753 756 759 762 764 767 769 770 772 774 775 776 778 779 781 783 785 787 788 790
776 774 774 773 766 764 767 761 756 758 762 767 770 758 736 717 703 699 701 699 696 695 696 699 696 693 693 692 690 689 688 689 690 689 688 687 688 689 687 686 688 688 688 687 687 689 689 690 692 693 693 695 698 700 700 702 705 709 712 713 714 716 718 719 719 720 722 723 725 728 730 732 734 737 741 743 746 749 752 755 758 760 763 765 767 769 770 772 773 775 776 777 779 781 783 784 786
772 777 769 762 759 757 760 760 756 766 770 755 744 740 728 715 702 694 698 698 694 694 695 696 695 693 694 692 690 691 691 689 688 687 688 687 687 688 688 686 686 686 687 685 684 686 687 689 691 693 695 695 695 696 697 700 703 705 707 708 711 713 714 714 714 716 718 720 723 725 727 730 732 734 737 739 742 745 748 751 753 756 759 761 764 766 768 769 771 772 773 774 775 777 779 781 783
766 770 762 757 761 760 764 771 767 768 767 746 731 728 723 722 711 696 697 697 691 692 695 694 693 694 693 688 688 691 691 690 689 687 687 687 687 688 688 687 687 686 687 686 685 685 686 687 689 692 693 692 691 692 695 698 700 701 702 703 705 706 708 709 711 713 716 718 720 722 724 726 727 730 733 736 739 742 745 748 750 752 755 757 760 762 765 767 768 770 771 772 773 774 776 778 780
764 763 761 761 765 763 765 773 770 765 761 747 735 727 722 722 711 697 697 696 689 691 695 692 689 692 693 691 690 691 691 691 688 684 680 679 681 685 686 685 686 686 687 687 688 688 686 685 686 689 690 690 691 693 694 695 696 697 697 698 700 702 704 706 708 711 713 714 715 717 720 722 724 727 730 732 735 738 741 744 746 749 751 754 757 759 761 764 766 767 769 770 771 772 774 775 777
764 764 763 764 765 762 762 763 760 756 752 745 737 730 720 709 699 695 695 692 690 693 694 693 693 695 696 694 692 690 689 689 686 683 679 677 677 680 683 684 684 685 685 686 688 688 685 684 683 685 687 689 691 691 691 691 691 691 692 694 696 698 700 702 704 707 708 709 711 714 716 718 721 724 726 729 731 734 737 740 743 746 748 751 753 756 758 760 763 765 766 767 769 770 771 773 775
762 764 763 764 762 760 761 759 754 751 749 745 741 735 720 703 694 694 693 691 693 696 694 694 695 695 693 691 689 688 688 689 687 685 684 684 681 680 682 684 684 683 682 683 685 686 686 684 681 679 681 684 686 687 688 688 687 687 687 688 690 692 695 698 701 703 704 705 708 710 712 715 717 720 722 724 727 729 733 736 739 742 745 748 750 752 755 757 760 762 764 765 766 767 769 770 772
759 761 760 759 758 760 765 761 750 748 749 745 743 739 725 707 695 691 692 695 695 696 695 694 693 692 690 688 689 689 690 690 689 687 686 686 684 682 683 683 682 681 679 679 680 682 683 681 677 676 677 679 680 681 682 681 683 684 684 684 686 688 692 695 698 699 700 702 704 705 708 711 713 715 717 719 722 725 728 732 735 739 742 745 747 749 751 753 755 758 760 762 763 764 766 767 769